Location: Luz Observatory
(34.5000°N, 117.2833°W)
Time: 08:39:06
(UTC-08:00)

Daily predictions for brighter satellites

Satellite Brightness Start Highest point End
(mag) Time Altitude Azimuth Time Altitude Azimuth Time Altitude Azimuth
Centaur D AC-28 3.8 16:47:11 10° WSW 16:51:35 54° S 17:11:15 10° ESE
Cosmos 2082 3.9 16:58:32 10° N 17:03:58 49° ENE 17:09:24 10° SE
COSMO-SKYMED 1 3.9 17:01:20 10° NE 17:04:42 22° E 17:08:02 10° SSE
CORIOLIS 4.4 17:02:06 10° SE 17:07:15 47° ENE 17:12:24 10° N
AQUARIUS 4.3 17:04:47 10° SSE 17:09:08 53° ENE 17:13:31 10° N
Cosmos 2227 Rocket 2.2 17:08:26 10° NNW 17:14:07 79° ENE 17:19:45 10° SSE
NOSS 3-2 (A) 4.2 17:07:47 10° NNW 17:15:13 52° NE 17:23:13 10° SE
Cosmos 1271 Rocket 3.7 17:14:00 10° NNW 17:17:44 53° W 17:21:31 10° S
ISS -2.5 17:15:25 10° WNW 17:18:33 44° SW 17:21:41 10° SSE
Cosmos 1025 Rocket 3.8 17:15:26 10° SSE 17:19:14 32° E 17:23:03 10° NNE
GOES 2 Rocket 4.3 17:16:19 10° WSW 17:20:08 35° S 17:24:21 10° ESE
OAO 1 Rocket 4.5 17:14:57 10° W 17:20:19 84° N 17:25:40 10° E
Cosmos 158 Rocket 3.9 17:17:31 10° NNW 17:22:34 90° E 17:27:28 10° SSE
Cosmos 2084 3.3 17:18:28 10° SSW 17:22:44 87° ESE 17:26:46 10° NNE
Okean 2 4.0 17:20:25 10° SSE 17:24:09 35° E 17:27:54 10° NNE
NOSS 3-2 (C) 4.3 17:16:58 10° NNW 17:24:15 45° NE 17:32:05 10° SE
Shenzhou-11 Module 3.8 17:22:57 10° S 17:25:13 20° SE 17:27:16 11° E
ATLAS 3B R/B 2.7 17:18:39 10° NNW 17:25:17 85° WSW 17:31:49 10° SSE
Cosmos 1980 Rocket 2.5 17:20:31 10° S 17:25:53 46° ESE 17:31:18 10° NE
Meteor 2-9 Rocket 4.1 17:22:56 10° N 17:28:24 86° E 17:33:43 10° S
Cosmos 1666 4.2 17:25:36 10° NNW 17:29:06 39° W 17:32:36 10° SSW
Cosmos 1656 4.4 17:25:16 10° SW 17:30:43 55° WNW 17:36:08 10° NNE
Cosmos 1536 Rocket 4.4 17:29:26 10° SSW 17:33:40 52° W 17:37:54 10° N
Okean 1-7 Rocket 4.1 17:30:22 10° SSE 17:34:21 36° E 17:38:24 10° NNE
SL-24 R/B - RUBIN 2 4.3 17:29:37 10° SSW 17:35:59 84° ESE 17:41:47 10° NNE
USA 215 3.3 17:29:48 10° ESE 17:36:11 59° NE 17:42:35 10° NW
Cosmos 1484 Rocket 3.7 17:34:02 10° S 17:37:57 54° W 17:41:54 10° NNW
CZ-2C R/B 3.9 17:33:32 10° N 17:38:16 84° WNW 17:43:02 10° SSW
DELTA 2 R/B (1) 3.7 17:33:48 10° WNW 17:39:18 58° NNE 17:43:43 16° E
Cosmos 2297 Rocket 2.5 17:34:38 10° NNW 17:40:17 74° WSW 17:45:54 10° SSE
Meteor 1-23 Rocket 4.4 17:36:32 10° S 17:42:18 83° W 17:48:01 10° N
NOSS 3-4 (A) 3.9 17:41:58 10° SW 17:48:05 63° WNW 17:54:26 10° NNE
NOSS 3-4 (C) 3.9 17:42:02 10° SW 17:48:10 64° WNW 17:54:31 10° NNE
MOS 1 4.3 17:45:09 10° SSE 17:50:41 56° ENE 17:56:13 10° N
SKYMED 2 3.5 17:48:32 10° NNE 17:52:54 83° ESE 17:57:14 10° S
SMAP 4.2 17:48:30 10° S 17:52:57 46° W 17:57:25 10° NNW
BREEZE-M DEB (TANK) 3.4 17:50:46 10° NW 17:54:11 83° SW 18:06:46 10° SE
NOSS 2-2 (D) 3.3 17:51:39 10° SSW 17:55:29 63° ESE 17:57:48 24° NE
Cosmos 1606 Rocket 4.2 17:52:00 10° NNE 17:55:50 30° ENE 17:59:39 10° SE
CZ-4 R/B 4.5 17:55:11 10° S 17:59:19 83° WSW 18:03:28 10° NNW
Lacrosse 5 rocket 2.2 17:56:18 10° S 17:59:59 32° ESE 18:01:05 28° E
METEOR-M 4.1 17:56:18 10° SSE 18:01:39 87° W 18:07:00 10° NNW
CENTAUR R/B 3.6 17:56:23 10° NNW 18:03:41 37° NE 18:09:42 16° ESE
FENGYUN 3A 3.6 18:00:13 10° SSE 18:05:29 60° ENE 18:10:46 10° N
Atlas Centaur 2 4.0 18:01:12 10° W 18:05:41 24° SSW 18:09:27 10° SSE
ALOS 2.1 18:04:25 10° SSE 18:09:01 68° ENE 18:13:40 10° N
SL-16 R/B 2.8 18:05:05 10° SSE 18:10:09 35° ESE 18:11:34 30° ENE
NOSS 2-2 (E) 3.5 18:06:55 10° SW 18:10:46 69° WNW 18:13:04 25° NNE
SL-8 R/B 3.6 18:06:18 10° SW 18:11:07 87° NW 18:13:13 34° NE
Cosmos 2322 Rocket 2.7 18:08:38 10° S 18:13:42 36° ESE 18:14:52 33° ENE
Cosmos 1184 Rocket 2.6 18:11:00 10° S 18:14:15 88° E 18:15:10 45° N
RESURS DK-1 2.6 18:12:40 10° SSW 18:16:46 66° WNW 18:19:06 24° N
SPOT 3 Rocket 3.4 18:12:17 10° SSE 18:17:27 79° ENE 18:22:37 10° N
NOSS 2-2 (C) 3.5 18:14:10 10° SW 18:18:00 68° WNW 18:19:45 32° NNE
Cosmos 1726 Rocket 3.7 18:14:37 10° N 18:18:49 46° E 18:22:58 10° SSE
Hubble Space Telescope 3.7 18:18:18 10° SW 18:19:33 11° SSW 18:20:49 10° S
Cosmos 1892 Rocket 3.5 18:15:16 10° S 18:19:41 63° E 18:21:25 35° NNE
YAOGAN 1 3.8 18:15:38 10° S 18:19:44 43° W 18:23:52 10° NNW
Cosmos 494 Rocket 3.9 18:15:33 10° NNW 18:20:50 79° ENE 18:26:04 10° SSE
EO 1 Del DPAF 4.2 18:21:11 11° N 18:24:38 45° WNW 18:28:16 10° SSW
ERS-2 2.5 18:21:36 10° S 18:25:13 65° WSW 18:28:53 10° NNW
Gblst 52 Del rocket 4.3 18:21:14 10° NW 18:26:57 66° NE 18:29:44 34° ESE
Cosmos 2344 3.7 18:21:52 10° S 18:29:16 51° ESE 18:32:09 35° ENE
Cosmos 2251 Rocket 3.4 18:25:41 10° N 18:30:55 63° ENE 18:36:05 10° SSE
Thor Agena Rocket 3.7 18:30:07 47° ENE 18:30:56 52° E 18:36:03 10° S
CZ-4 R/B 4.4 18:34:40 10° SW 18:37:03 16° W 18:39:28 10° NW
S3M 4.0 18:44:38 10° S 18:50:44 76° W 18:56:00 15° N
Cosmos 1386 Rocket 4.4 18:59:40 10° N 19:06:06 80° E 19:12:30 10° S
Cosmos 2360 Rocket 4.0 19:02:50 10° S 19:04:20 18° SSE 19:04:20 18° SSE
FengYun 1-2 T 4.4 19:02:49 10° S 19:08:24 71° WSW 19:14:03 10° NNW
Cosmos 1980 Rocket 4.3 19:05:47 10° WSW 19:10:05 22° WNW 19:14:03 11° N
DELTA 2 R/B (1) 4.4 19:20:20 10° WNW 19:24:31 48° W 19:24:31 48° W
Lacrosse 5 rocket 4.2 19:35:37 10° W 19:36:48 16° W 19:36:48 16° W
SL-16 R/B 4.0 19:49:27 10° WSW 19:53:29 27° WNW 19:53:29 27° WNW
CENTAUR R/B 3.7 19:46:50 10° NW 19:54:42 53° WSW 19:57:06 42° SSW
Cosmos 2322 Rocket 4.1 19:53:08 10° WSW 19:56:45 25° WNW 19:56:45 25° WNW
